Torna al catalogo

SL-6 DEB *

AttivoHEO
NORAD 48262·DEBRIS·🇷🇺 Russia

Lanciato Jul 18, 1980 da Plesetsk Cosmodrome

Loading…

Prossimi Passaggi (prossime 24 ore)

TLE

In scadenzaSource: Space-Track

Epoca: Sep 5, 2026, 06:52 UTC

1 48262U 80063F   26248.28616420 -.00000564  00000-0  73090-2 0  9997
2 48262  63.8009 351.2237 7210416 280.7335  69.1505  2.05099866 95816

Traccia SL-6 DEB * in tempo reale con AllMySat

Download on the App Store